SITRO-AIS 12 (SMIRENNIY)

Last updated on Sun Dec 14 2025 00:03:50 GMT+0000 (Coordinated Universal Time)

1 57204U 23091AQ 25347.31869205 .00028523 00000+0 95565-3 0 9990 2 57204 97.5367 49.4360 0008165 18.3608 341.7926 15.30859853136266
UTC large
Height (km)
Speed (km/s)
/
Latitude / Longitude
Inclination (degrees)
Orbital Period (minutes)
Azimuth
Elevation
Range (km)
Doppler Factor

Next 0 passes for location: London (51.5072 / 0.1276)

Sorry there are no passes over London.